This is the latest recevied weather packets stored in our database for station/object KE1THD. If no packets are shown the sender has not sent any weather packets the latest 10 day(s).
| Time | Temp. | Humidity | Pressure | Rain* | Wind** | Luminosity | Snow |
|---|---|---|---|---|---|---|---|
| 1778010845 | 12.78° C | 37% | 1010.5 hPa | 0 mm | - | 267 W/m² | - |
| 1778010543 | 12.78° C | 37% | 1010.4 hPa | 0 mm | - | 260 W/m² | - |
| 1778010235 | 12.78° C | 37% | 1010.6 hPa | 0 mm | - | 246 W/m² | - |
| 1778009935 | 12.78° C | 37% | 1010.5 hPa | 0 mm | - | 252 W/m² | - |
| 1778009633 | 12.78° C | 36% | 1010.6 hPa | 0 mm | - | 266 W/m² | - |
| 1778009330 | 12.78° C | 36% | 1010.8 hPa | 0 mm | - | 242 W/m² | - |
| 1778009029 | 12.78° C | 38% | 1010.7 hPa | 0 mm | - | 231 W/m² | - |
| 1778008726 | 12.78° C | 37% | 1010.8 hPa | 0 mm | - | 220 W/m² | - |
| 1778008424 | 12.78° C | 36% | 1011.1 hPa | 0 mm | - | 216 W/m² | - |
| 1778008121 | 12.78° C | 36% | 1010.9 hPa | 0 mm | - | 220 W/m² | - |
| 1778007816 | 12.78° C | 36% | 1011 hPa | 0 mm | - | 227 W/m² | - |
| 1778007512 | 12.78° C | 37% | 1010.8 hPa | 0 mm | - | 228 W/m² | - |
| 1778007209 | 12.78° C | 37% | 1011.1 hPa | 0 mm | - | 237 W/m² | - |
| 1778006905 | 12.78° C | 35% | 1010.7 hPa | 0 mm | - | 222 W/m² | - |
| 1778006602 | 12.78° C | 35% | 1010.8 hPa | 0 mm | - | 220 W/m² | - |
| 1778006299 | 12.78° C | 37% | 1010.9 hPa | 0 mm | - | 235 W/m² | - |
| 1778005996 | 12.78° C | 37% | 1011.2 hPa | 0 mm | - | 278 W/m² | - |
| 1778005693 | 12.78° C | 37% | 1011 hPa | 0 mm | - | 314 W/m² | - |
| 1778005390 | 12.78° C | 38% | 1010.9 hPa | 0 mm | - | 295 W/m² | - |
| 1778005086 | 12.78° C | 37% | 1011.1 hPa | 0 mm | - | 265 W/m² | - |
| 1778004784 | 12.78° C | 37% | 1011.1 hPa | 0 mm | - | 260 W/m² | - |
| 1778004480 | 12.78° C | 38% | 1011 hPa | 0 mm | - | 273 W/m² | - |
| 1778004176 | 12.78° C | 38% | 1011.1 hPa | 0 mm | - | 282 W/m² | - |
| 1778003873 | 12.78° C | 37% | 1011 hPa | 0 mm | - | 311 W/m² | - |
| 1778003569 | 12.78° C | 38% | 1011.1 hPa | 0 mm | - | 352 W/m² | - |
* Rain latest hour (hover to see other rain measurements)
** Current wind speed in m/s (hover to see current wind gust speed)